Weather in Bratoliubivka

Ukraine / Kirovohrad Region     48°12′23″N   32°57′07″E
temp.,
°C
wind,
m/s
gust,
m/s
humid.,
%
clouds,
%
prec.,
mm/h
press.,
hPa
HPBL,
m
19 april, mon
mon1900:00+9nne2465100 0.0 1017126
03:00+9nne2373100 0.0 1016100
06:00+6nne3587100 0.0 101696
09:00+9nne3378100 0.0 1016403
12:00+13n1158100 0.1 10151213
15:00+13nnw2151100 0.3 10141383
18:00+12nne4561100 0.1 1013378
21:00+10nne576699 0.1 1013286
20 april, tue
tue2000:00+8nne4673100 0.0 1012164
03:00+8nne4774100 0.0 1010181
06:00+7nne5878100 0.0 1008247
09:00+8nne5980100 0.2 1007422
12:00+8n6983100 0.5 1005474
15:00+10nnw7976100 0.6 1005833
18:00+11nw71069100 0.1 1005883
21:00+9wnw61274100 0.1 1007489
21 april, wed
wed2100:00+8w5977100 0.0 1009364
03:00+5w510891 0.0 1010219
06:00+4w49884 0.0 1012195
09:00+9w56655 0.0 1013621
12:00+13w564962 0.0 10141764
15:00+15w563883 0.0 10142293
18:00+13sw4653100 0.0 1015422
21:00+10sw4774100 0.0 1017220
22 april, thu
thu2200:00+9sw2477100 0.0 101787
03:00+8s348699 0.0 1017106
06:00+7ssw359646 0.0 1018115
09:00+10sw347689 0.0 1019475
12:00+15sw445345 0.4 10191571
15:00+17wsw4539100 0.8 10182392
18:00+15w2253100 0.0 101824
21:00+12ssw486693 0.0 1019153
23 april, fri
fri2300:00+10ssw487685 0.0 1020180
03:00+8s4108142 0.0 1019217
06:00+7s4108556 0.0 1019205
09:00+12ssw6116794 0.0 1018512
12:00+16ssw9115120 0.0 10181403
15:00+18ssw91047100 0.1 10162088
18:00+15sw9126169 0.4 10161446
21:00+11nw3489100 0.9 1017236